Location: Unspecified
(39.0670°S, 0.0000°E)
Time: 03:38:38
(UTC+00:00)

NOAA 19 - Visible Passes

Search period start: 22 August 2019 00:00
Search period end: 01 September 2019 00:00
Orbit: 841 x 861 km, 99.2° (Epoch: 21 August)

Date Brightness Start Highest point End Pass type
(mag) Time Alt. Az. Time Alt. Az. Time Alt. Az.
22 Aug 7.8 03:03:04 10° E 03:06:06 15° ESE 03:09:07 10° SSE visible
22 Aug 5.1 04:40:35 10° N 04:46:03 75° WNW 04:51:37 10° SSW visible
22 Aug 7.7 18:45:21 10° SSW 18:49:30 22° WSW 18:53:38 10° WNW visible
23 Aug 8.1 02:52:41 10° ESE 02:54:37 12° ESE 02:56:32 10° SE visible
23 Aug 5.1 04:28:54 10° NNE 04:34:23 86° ESE 04:39:57 10° SSW visible
23 Aug 7.4 18:33:21 10° S 18:37:57 27° WSW 18:42:33 10° WNW visible
24 Aug 5.5 04:17:19 10° NNE 04:22:45 68° ESE 04:28:15 10° S visible
24 Aug 6.7 06:00:53 10° NW 06:03:52 15° W 06:06:53 10° WSW visible
24 Aug 7.0 18:21:25 10° S 18:26:24 34° WSW 18:31:20 10° NW visible
25 Aug 5.9 04:05:48 10° NNE 04:11:07 53° ESE 04:16:30 10° S visible
25 Aug 6.4 05:48:14 10° NW 05:52:04 19° W 05:55:56 10° SW visible
25 Aug 6.6 18:09:33 10° S 18:14:49 43° WSW 18:20:02 10° NW visible
26 Aug 6.3 03:54:23 10° NE 03:59:31 42° ESE 04:04:42 10° S visible
26 Aug 6.2 05:35:53 10° NNW 05:40:17 25° W 05:44:44 10° SW visible
26 Aug 6.2 17:57:45 10° S 18:03:12 54° WSW 18:08:37 10° NNW visible
27 Aug 6.8 03:43:04 10° NE 03:47:56 33° ESE 03:52:50 10° S visible
27 Aug 5.9 05:23:42 10° NNW 05:28:31 31° W 05:33:24 10° SW visible
28 Aug 7.1 03:31:52 10° ENE 03:36:22 27° ESE 03:40:54 10° S visible
28 Aug 5.6 05:11:40 10° NNW 05:16:47 40° W 05:21:59 10° SSW visible
28 Aug 8.2 19:17:36 10° SW 19:19:44 12° WSW 19:21:51 10° W visible
29 Aug 7.5 03:20:47 10° ENE 03:24:50 21° ESE 03:28:54 10° SSE visible
29 Aug 5.3 04:59:44 10° N 05:05:03 51° W 05:10:28 10° SSW visible
29 Aug 8.0 19:05:05 10° SSW 19:08:15 16° WSW 19:11:25 10° W visible
30 Aug 7.8 03:09:52 10° E 03:13:18 17° ESE 03:16:46 10° SSE visible
30 Aug 5.1 04:47:55 10° N 04:53:21 66° WNW 04:58:54 10° SSW visible
30 Aug 7.9 18:52:52 10° SSW 18:56:44 20° WSW 19:00:36 10° WNW visible
31 Aug 8.0 02:59:14 10° E 03:01:49 14° ESE 03:04:25 10° SSE visible
31 Aug 5.1 04:36:11 10° NNE 04:41:41 84° WNW 04:47:16 10° SSW visible
31 Aug 7.6 18:40:48 10° SSW 18:45:13 24° WSW 18:49:36 10° WNW visible
